Year,Month,Day,Hour,Minute,Value (Times are PST for temperature in C)
2017,05,25,00,00,12.90
2017,05,25,00,01,12.90
2017,05,25,00,02,12.90
2017,05,25,00,03,12.80
2017,05,25,00,04,12.80
2017,05,25,00,05,12.80
2017,05,25,00,06,12.80
2017,05,25,00,07,12.80
2017,05,25,00,08,12.90
2017,05,25,00,09,12.90
2017,05,25,00,10,12.90
2017,05,25,00,11,12.80
2017,05,25,00,12,12.80
2017,05,25,00,13,12.80
2017,05,25,00,14,12.80
2017,05,25,00,15,12.70
2017,05,25,00,16,12.70
2017,05,25,00,17,12.70
2017,05,25,00,18,12.60
2017,05,25,00,19,12.50
2017,05,25,00,20,12.50
2017,05,25,00,21,12.40
2017,05,25,00,22,12.40
2017,05,25,00,23,12.40
2017,05,25,00,24,12.30
2017,05,25,00,25,12.30
2017,05,25,00,26,12.30
2017,05,25,00,27,12.30
2017,05,25,00,28,12.30
2017,05,25,00,29,12.30
2017,05,25,00,30,12.20
2017,05,25,00,31,12.20
2017,05,25,00,32,12.20
2017,05,25,00,33,12.20
2017,05,25,00,34,12.20
2017,05,25,00,35,12.20
2017,05,25,00,36,12.20
2017,05,25,00,37,12.30
2017,05,25,00,38,12.30
2017,05,25,00,39,12.30
2017,05,25,00,40,12.30
2017,05,25,00,41,12.30
2017,05,25,00,42,12.30
2017,05,25,00,43,12.30
2017,05,25,00,44,12.30
2017,05,25,00,45,12.30
2017,05,25,00,46,12.20
2017,05,25,00,47,12.20
2017,05,25,00,48,12.20
2017,05,25,00,49,12.10
2017,05,25,00,50,12.10
2017,05,25,00,51,12.00
2017,05,25,00,52,12.00
2017,05,25,00,53,11.90
2017,05,25,00,54,11.90
2017,05,25,00,55,11.80
2017,05,25,00,56,11.80
2017,05,25,00,57,11.70
2017,05,25,00,58,11.70
2017,05,25,00,59,11.60
2017,05,25,01,00,11.60
2017,05,25,01,01,11.50
2017,05,25,01,02,11.50
2017,05,25,01,03,11.40
2017,05,25,01,04,11.40
2017,05,25,01,05,11.30
2017,05,25,01,06,11.30
2017,05,25,01,07,11.30
2017,05,25,01,08,11.20
2017,05,25,01,09,11.20
2017,05,25,01,10,11.10
2017,05,25,01,11,11.10
2017,05,25,01,12,11.10
2017,05,25,01,13,11.00
2017,05,25,01,14,11.00
2017,05,25,01,15,10.90
2017,05,25,01,16,10.90
2017,05,25,01,17,10.80
2017,05,25,01,18,10.80
2017,05,25,01,19,10.70
2017,05,25,01,20,10.70
2017,05,25,01,21,10.70
2017,05,25,01,22,10.60
2017,05,25,01,23,10.60
2017,05,25,01,24,10.50
2017,05,25,01,25,10.40
2017,05,25,01,26,10.40
2017,05,25,01,27,10.40
2017,05,25,01,28,10.30
2017,05,25,01,29,10.30
2017,05,25,01,30,10.30
2017,05,25,01,31,10.20
2017,05,25,01,32,10.20
2017,05,25,01,33,10.20
2017,05,25,01,34,10.10
2017,05,25,01,35,10.10
2017,05,25,01,36,10.10
2017,05,25,01,37,10.10
2017,05,25,01,38,10.00
2017,05,25,01,39,10.00
2017,05,25,01,40,10.00
2017,05,25,01,41,9.90
2017,05,25,01,42,9.90
2017,05,25,01,43,9.90
2017,05,25,01,44,9.90
2017,05,25,01,45,9.90
2017,05,25,01,46,9.80
2017,05,25,01,47,9.80
2017,05,25,01,48,9.80
2017,05,25,01,49,9.80
2017,05,25,01,50,9.70
2017,05,25,01,51,9.70
2017,05,25,01,52,9.70
2017,05,25,01,53,9.70
2017,05,25,01,54,9.70
2017,05,25,01,55,9.60
2017,05,25,01,56,9.60
2017,05,25,01,57,9.60
2017,05,25,01,58,9.60
2017,05,25,01,59,9.60
2017,05,25,02,00,9.60
2017,05,25,02,01,9.60
2017,05,25,02,02,9.50
2017,05,25,02,03,9.50
2017,05,25,02,04,9.40
2017,05,25,02,05,9.40
2017,05,25,02,06,9.40
2017,05,25,02,07,9.40
2017,05,25,02,08,9.40
2017,05,25,02,09,9.30
2017,05,25,02,10,9.30
2017,05,25,02,11,9.30
2017,05,25,02,12,9.30
2017,05,25,02,13,9.30
2017,05,25,02,14,9.30
2017,05,25,02,15,9.20
2017,05,25,02,16,9.20
2017,05,25,02,17,9.20
2017,05,25,02,18,9.20
2017,05,25,02,19,9.20
2017,05,25,02,20,9.20
2017,05,25,02,21,9.20
2017,05,25,02,22,9.10
2017,05,25,02,23,9.10
2017,05,25,02,24,9.10
2017,05,25,02,25,9.10
2017,05,25,02,26,9.10
2017,05,25,02,27,9.10
2017,05,25,02,28,9.00
2017,05,25,02,29,9.00
2017,05,25,02,30,9.00
2017,05,25,02,31,8.90
2017,05,25,02,32,8.90
2017,05,25,02,33,8.90
2017,05,25,02,34,8.90
2017,05,25,02,35,8.90
2017,05,25,02,36,8.80
2017,05,25,02,37,8.80
2017,05,25,02,38,8.80
2017,05,25,02,39,8.80
2017,05,25,02,40,8.80
2017,05,25,02,41,8.80
2017,05,25,02,42,8.70
2017,05,25,02,43,8.70
2017,05,25,02,44,8.70
2017,05,25,02,45,8.70
2017,05,25,02,46,8.70
2017,05,25,02,47,8.70
2017,05,25,02,48,8.70
2017,05,25,02,49,8.70
2017,05,25,02,50,8.70
2017,05,25,02,51,8.70
2017,05,25,02,52,8.70
2017,05,25,02,53,8.70
2017,05,25,02,54,8.60
2017,05,25,02,55,8.60
2017,05,25,02,56,8.60
2017,05,25,02,57,8.50
2017,05,25,02,58,8.50
2017,05,25,02,59,8.50
2017,05,25,03,00,8.50
2017,05,25,03,01,8.40
2017,05,25,03,02,8.40
2017,05,25,03,03,8.40
2017,05,25,03,04,8.40
2017,05,25,03,05,8.40
2017,05,25,03,06,8.40
2017,05,25,03,07,8.30
2017,05,25,03,08,8.30
2017,05,25,03,09,8.30
2017,05,25,03,10,8.30
2017,05,25,03,11,8.30
2017,05,25,03,12,8.30
2017,05,25,03,13,8.20
2017,05,25,03,14,8.20
2017,05,25,03,15,8.20
2017,05,25,03,16,8.20
2017,05,25,03,17,8.20
2017,05,25,03,18,8.20
2017,05,25,03,19,8.20
2017,05,25,03,20,8.10
2017,05,25,03,21,8.10
2017,05,25,03,22,8.10
2017,05,25,03,23,8.10
2017,05,25,03,24,8.10
2017,05,25,03,25,8.10
2017,05,25,03,26,8.10
2017,05,25,03,27,8.10
2017,05,25,03,28,8.00
2017,05,25,03,29,8.00
2017,05,25,03,30,8.00
2017,05,25,03,31,8.00
2017,05,25,03,32,8.00
2017,05,25,03,33,8.00
2017,05,25,03,34,7.90
2017,05,25,03,35,7.90
2017,05,25,03,36,7.90
2017,05,25,03,37,7.90
2017,05,25,03,38,7.90
2017,05,25,03,39,7.90
2017,05,25,03,40,7.90
2017,05,25,03,41,7.90
2017,05,25,03,42,7.90
2017,05,25,03,43,7.90
2017,05,25,03,44,7.80
2017,05,25,03,45,7.80
2017,05,25,03,46,7.80
2017,05,25,03,47,7.80
2017,05,25,03,48,7.80
2017,05,25,03,49,7.80
2017,05,25,03,50,7.80
2017,05,25,03,51,7.80
2017,05,25,03,52,7.80
2017,05,25,03,53,7.80
2017,05,25,03,54,7.80
2017,05,25,03,55,7.70
2017,05,25,03,56,7.70
2017,05,25,03,57,7.70
2017,05,25,03,58,7.70
2017,05,25,03,59,7.60
2017,05,25,04,00,7.60
2017,05,25,04,01,7.60
2017,05,25,04,02,7.60
2017,05,25,04,03,7.60
2017,05,25,04,04,7.50
2017,05,25,04,05,7.50
2017,05,25,04,06,7.50
2017,05,25,04,07,7.40
2017,05,25,04,08,7.40
2017,05,25,04,09,7.40
2017,05,25,04,10,7.40
2017,05,25,04,11,7.40
2017,05,25,04,12,7.30
2017,05,25,04,13,7.30
2017,05,25,04,14,7.30
2017,05,25,04,15,7.30
2017,05,25,04,16,7.30
2017,05,25,04,17,7.30
2017,05,25,04,18,7.30
2017,05,25,04,19,7.30
2017,05,25,04,20,7.30
2017,05,25,04,21,7.30
2017,05,25,04,22,7.30
2017,05,25,04,23,7.30
2017,05,25,04,24,7.20
2017,05,25,04,25,7.20
2017,05,25,04,26,7.20
2017,05,25,04,27,7.20
2017,05,25,04,28,7.20
2017,05,25,04,29,7.10
2017,05,25,04,30,7.10
2017,05,25,04,31,7.10
2017,05,25,04,32,7.10
2017,05,25,04,33,7.10
2017,05,25,04,34,7.10
2017,05,25,04,35,7.10
2017,05,25,04,36,7.10
2017,05,25,04,37,7.10
2017,05,25,04,38,7.10
2017,05,25,04,39,7.10
2017,05,25,04,40,7.10
2017,05,25,04,41,7.10
2017,05,25,04,42,7.10
2017,05,25,04,43,7.00
2017,05,25,04,44,7.00
2017,05,25,04,45,7.00
2017,05,25,04,46,7.00
2017,05,25,04,47,7.00
2017,05,25,04,48,7.00
2017,05,25,04,49,7.00
2017,05,25,04,50,7.00
2017,05,25,04,51,6.90
2017,05,25,04,52,6.90
2017,05,25,04,53,6.90
2017,05,25,04,54,6.90
2017,05,25,04,55,6.90
2017,05,25,04,56,6.90
2017,05,25,04,57,6.90
2017,05,25,04,58,6.90
2017,05,25,04,59,6.90
2017,05,25,05,00,6.90
2017,05,25,05,01,6.90
2017,05,25,05,02,6.90
2017,05,25,05,03,6.80
2017,05,25,05,04,6.80
2017,05,25,05,05,6.80
2017,05,25,05,06,6.80
2017,05,25,05,07,6.80
2017,05,25,05,08,6.80
2017,05,25,05,09,6.80
2017,05,25,05,10,6.80
2017,05,25,05,11,6.80
2017,05,25,05,12,6.80
2017,05,25,05,13,6.70
2017,05,25,05,14,6.70
2017,05,25,05,15,6.70
2017,05,25,05,16,6.70
2017,05,25,05,17,6.70
2017,05,25,05,18,6.70
2017,05,25,05,19,6.70
2017,05,25,05,20,6.70
2017,05,25,05,21,6.70
2017,05,25,05,22,6.70
2017,05,25,05,23,6.70
2017,05,25,05,24,6.70
2017,05,25,05,25,6.70
2017,05,25,05,26,6.70
2017,05,25,05,27,6.70
2017,05,25,05,28,6.70
2017,05,25,05,29,6.70
2017,05,25,05,30,6.80
2017,05,25,05,31,6.80
2017,05,25,05,32,6.80
2017,05,25,05,33,6.80
2017,05,25,05,34,6.80
2017,05,25,05,35,6.80
2017,05,25,05,36,6.80
2017,05,25,05,37,6.80
2017,05,25,05,38,6.80
2017,05,25,05,39,6.80
2017,05,25,05,40,6.80
2017,05,25,05,41,6.80
2017,05,25,05,42,6.80
2017,05,25,05,43,6.80
2017,05,25,05,44,6.80
2017,05,25,05,45,6.80
2017,05,25,05,46,6.80
2017,05,25,05,47,6.80
2017,05,25,05,48,6.80
2017,05,25,05,49,6.80
2017,05,25,05,50,6.70
2017,05,25,05,51,6.70
2017,05,25,05,52,6.70
2017,05,25,05,53,6.70
2017,05,25,05,54,6.70
2017,05,25,05,55,6.70
2017,05,25,05,56,6.80
2017,05,25,05,57,6.80
2017,05,25,05,58,6.80
2017,05,25,05,59,6.80
2017,05,25,06,00,6.80
2017,05,25,06,01,6.80
2017,05,25,06,02,6.80
2017,05,25,06,03,6.70
2017,05,25,06,04,6.70
2017,05,25,06,05,6.80
2017,05,25,06,06,6.80
2017,05,25,06,07,6.80
2017,05,25,06,08,6.80
2017,05,25,06,09,6.80
2017,05,25,06,10,6.80
2017,05,25,06,11,6.80
2017,05,25,06,12,6.80
2017,05,25,06,13,6.80
2017,05,25,06,14,6.80
2017,05,25,06,15,6.80
2017,05,25,06,16,6.80
2017,05,25,06,17,6.80
2017,05,25,06,18,6.80
2017,05,25,06,19,6.80
2017,05,25,06,20,6.80
2017,05,25,06,21,6.80
2017,05,25,06,22,6.90
2017,05,25,06,23,6.90
2017,05,25,06,24,6.90
2017,05,25,06,25,6.90
2017,05,25,06,26,6.90
2017,05,25,06,27,6.90
2017,05,25,06,28,6.90
2017,05,25,06,29,7.00
2017,05,25,06,30,7.10
2017,05,25,06,31,7.20
2017,05,25,06,32,7.20
2017,05,25,06,33,7.30
2017,05,25,06,34,7.30
2017,05,25,06,35,7.30
2017,05,25,06,36,7.30
2017,05,25,06,37,7.30
2017,05,25,06,38,7.30
2017,05,25,06,39,7.30
2017,05,25,06,40,7.40
2017,05,25,06,41,7.40
2017,05,25,06,42,7.40
2017,05,25,06,43,7.40
2017,05,25,06,44,7.40
2017,05,25,06,45,7.50
2017,05,25,06,46,7.50
2017,05,25,06,47,7.60
2017,05,25,06,48,7.60
2017,05,25,06,49,7.60
2017,05,25,06,50,7.70
2017,05,25,06,51,7.70
2017,05,25,06,52,7.70
2017,05,25,06,53,7.70
2017,05,25,06,54,7.80
2017,05,25,06,55,7.80
2017,05,25,06,56,7.80
2017,05,25,06,57,7.80
2017,05,25,06,58,7.80
2017,05,25,06,59,7.90
2017,05,25,07,00,7.90
2017,05,25,07,01,7.90
2017,05,25,07,02,7.90
2017,05,25,07,03,7.90
2017,05,25,07,04,8.00
2017,05,25,07,05,8.00
2017,05,25,07,06,8.00
2017,05,25,07,07,8.10
2017,05,25,07,08,8.10
2017,05,25,07,09,8.10
2017,05,25,07,10,8.20
2017,05,25,07,11,8.20
2017,05,25,07,12,8.20
2017,05,25,07,13,8.20
2017,05,25,07,14,8.20
2017,05,25,07,15,8.30
2017,05,25,07,16,8.40
2017,05,25,07,17,8.40
2017,05,25,07,18,8.50
2017,05,25,07,19,8.50
2017,05,25,07,20,8.50
2017,05,25,07,21,8.60
2017,05,25,07,22,8.70
2017,05,25,07,23,8.80
2017,05,25,07,24,8.90
2017,05,25,07,25,8.90
2017,05,25,07,26,9.00
2017,05,25,07,27,9.10
2017,05,25,07,28,9.20
2017,05,25,07,29,9.30
2017,05,25,07,30,9.40
2017,05,25,07,31,9.60
2017,05,25,07,32,9.70
2017,05,25,07,33,9.80
2017,05,25,07,34,9.80
2017,05,25,07,35,9.80
2017,05,25,07,36,9.80
2017,05,25,07,37,9.90
2017,05,25,07,38,9.90
2017,05,25,07,39,9.90
2017,05,25,07,40,9.90
2017,05,25,07,41,10.00
2017,05,25,07,42,10.00
2017,05,25,07,43,10.10
2017,05,25,07,44,10.10
2017,05,25,07,45,10.20
2017,05,25,07,46,10.20
2017,05,25,07,47,10.20
2017,05,25,07,48,10.20
2017,05,25,07,49,10.30
2017,05,25,07,50,10.30
2017,05,25,07,51,10.30
2017,05,25,07,52,10.40
2017,05,25,07,53,10.50
2017,05,25,07,54,10.60
2017,05,25,07,55,10.60
2017,05,25,07,56,10.70
2017,05,25,07,57,10.80
2017,05,25,07,58,10.80
2017,05,25,07,59,10.90
2017,05,25,08,00,10.90
2017,05,25,08,01,11.00
2017,05,25,08,02,11.10
2017,05,25,08,03,11.20
2017,05,25,08,04,11.20
2017,05,25,08,05,11.30
2017,05,25,08,06,11.40
2017,05,25,08,07,11.40
2017,05,25,08,08,11.50
2017,05,25,08,09,11.50
2017,05,25,08,10,11.60
2017,05,25,08,11,11.70
2017,05,25,08,12,11.80
2017,05,25,08,13,11.90
2017,05,25,08,14,11.90
2017,05,25,08,15,12.00
2017,05,25,08,16,12.10
2017,05,25,08,17,12.20
2017,05,25,08,18,12.20
2017,05,25,08,19,12.30
2017,05,25,08,20,12.40
2017,05,25,08,21,12.40
2017,05,25,08,22,12.50
2017,05,25,08,23,12.60
2017,05,25,08,24,12.60
2017,05,25,08,25,12.60
2017,05,25,08,26,12.60
2017,05,25,08,27,12.70
2017,05,25,08,28,12.80
2017,05,25,08,29,12.80
2017,05,25,08,30,12.90
2017,05,25,08,31,12.90
2017,05,25,08,32,12.90
2017,05,25,08,33,13.00
2017,05,25,08,34,13.00
2017,05,25,08,35,13.00
2017,05,25,08,36,13.00
2017,05,25,08,37,13.00
2017,05,25,08,38,13.10
2017,05,25,08,39,13.20
2017,05,25,08,40,13.30
2017,05,25,08,41,13.30
2017,05,25,08,42,13.40
2017,05,25,08,43,13.40
2017,05,25,08,44,13.50
2017,05,25,08,45,13.50
2017,05,25,08,46,13.50
2017,05,25,08,47,13.60
2017,05,25,08,48,13.60
2017,05,25,08,49,13.60
2017,05,25,08,50,13.70
2017,05,25,08,51,13.70
2017,05,25,08,52,13.70
2017,05,25,08,53,13.80
2017,05,25,08,54,13.80
2017,05,25,08,55,13.90
2017,05,25,08,56,14.00
2017,05,25,08,57,14.10
2017,05,25,08,58,14.10
2017,05,25,08,59,14.10
2017,05,25,09,00,14.20
2017,05,25,09,01,14.20
2017,05,25,09,02,14.20
2017,05,25,09,03,14.30
2017,05,25,09,04,14.30
2017,05,25,09,05,14.40
2017,05,25,09,06,14.50
2017,05,25,09,07,14.60
2017,05,25,09,08,14.70
2017,05,25,09,09,14.80
2017,05,25,09,10,14.80
2017,05,25,09,11,14.80
2017,05,25,09,12,14.90
2017,05,25,09,13,14.90
2017,05,25,09,14,14.90
2017,05,25,09,15,15.00
2017,05,25,09,16,15.00
2017,05,25,09,17,15.00
2017,05,25,09,18,14.90
2017,05,25,09,19,14.90
2017,05,25,09,20,14.90
2017,05,25,09,21,14.90
2017,05,25,09,22,14.80
2017,05,25,09,23,14.80
2017,05,25,09,24,14.90
2017,05,25,09,25,14.90
2017,05,25,09,26,14.90
2017,05,25,09,27,14.90
2017,05,25,09,28,15.00
2017,05,25,09,29,15.00
2017,05,25,09,30,15.10
2017,05,25,09,31,15.10
2017,05,25,09,32,15.10
2017,05,25,09,33,15.10
2017,05,25,09,34,15.10
2017,05,25,09,35,15.20
2017,05,25,09,36,15.20
2017,05,25,09,37,15.20
2017,05,25,09,38,15.20
2017,05,25,09,39,15.20
2017,05,25,09,40,15.30
2017,05,25,09,41,15.30
2017,05,25,09,42,15.30
2017,05,25,09,43,15.40
2017,05,25,09,44,15.40
2017,05,25,09,45,15.40
2017,05,25,09,46,15.40
2017,05,25,09,47,15.40
2017,05,25,09,48,15.40
2017,05,25,09,49,15.40
2017,05,25,09,50,15.40
2017,05,25,09,51,15.40
2017,05,25,09,52,15.40
2017,05,25,09,53,15.40
2017,05,25,09,54,15.40
2017,05,25,09,55,15.40
2017,05,25,09,56,15.50
2017,05,25,09,57,15.50
2017,05,25,09,58,15.50
2017,05,25,09,59,15.50
2017,05,25,10,00,15.40
2017,05,25,10,01,15.40
2017,05,25,10,02,15.50
2017,05,25,10,03,15.50
2017,05,25,10,04,15.60
2017,05,25,10,05,15.60
2017,05,25,10,06,15.60
2017,05,25,10,07,15.70
2017,05,25,10,08,15.70
2017,05,25,10,09,15.70
2017,05,25,10,10,15.70
2017,05,25,10,11,15.70
2017,05,25,10,12,15.70
2017,05,25,10,13,15.80
2017,05,25,10,14,15.90
2017,05,25,10,15,15.80
2017,05,25,10,16,15.80
2017,05,25,10,17,15.80
2017,05,25,10,18,15.90
2017,05,25,10,19,15.80
2017,05,25,10,20,15.90
2017,05,25,10,21,15.90
2017,05,25,10,22,15.90
2017,05,25,10,23,15.90
2017,05,25,10,24,15.90
2017,05,25,10,25,15.90
2017,05,25,10,26,15.90
2017,05,25,10,27,15.90
2017,05,25,10,28,16.00
2017,05,25,10,29,16.10
2017,05,25,10,30,16.10
2017,05,25,10,31,16.20
2017,05,25,10,32,16.30
2017,05,25,10,33,16.40
2017,05,25,10,34,16.50
2017,05,25,10,35,16.50
2017,05,25,10,36,16.50
2017,05,25,10,37,16.50
2017,05,25,10,38,16.40
2017,05,25,10,39,16.40
2017,05,25,10,40,16.40
2017,05,25,10,41,16.40
2017,05,25,10,42,16.50
2017,05,25,10,43,16.50
2017,05,25,10,44,16.60
2017,05,25,10,45,16.60
2017,05,25,10,46,16.70
2017,05,25,10,47,16.80
2017,05,25,10,48,16.80
2017,05,25,10,49,16.70
2017,05,25,10,50,16.70
2017,05,25,10,51,16.60
2017,05,25,10,52,16.60
2017,05,25,10,53,16.50
2017,05,25,10,54,16.60
2017,05,25,10,55,16.60
2017,05,25,10,56,16.70
2017,05,25,10,57,16.90
2017,05,25,10,58,16.90
2017,05,25,10,59,17.00
2017,05,25,11,00,17.00
2017,05,25,11,01,16.90
2017,05,25,11,02,16.90
2017,05,25,11,03,16.90
2017,05,25,11,04,16.90
2017,05,25,11,05,17.00
2017,05,25,11,06,17.10
2017,05,25,11,07,17.30
2017,05,25,11,08,17.40
2017,05,25,11,09,17.50
2017,05,25,11,10,17.70
2017,05,25,11,11,17.70
2017,05,25,11,12,17.70
2017,05,25,11,13,17.70
2017,05,25,11,14,17.60
2017,05,25,11,15,17.60
2017,05,25,11,16,17.50
2017,05,25,11,17,17.40
2017,05,25,11,18,17.40
2017,05,25,11,19,17.40
2017,05,25,11,20,17.40
2017,05,25,11,21,17.50
2017,05,25,11,22,17.60
2017,05,25,11,23,17.60
2017,05,25,11,24,17.60
2017,05,25,11,25,17.70
2017,05,25,11,26,17.70
2017,05,25,11,27,17.80
2017,05,25,11,28,17.90
2017,05,25,11,29,17.90
2017,05,25,11,30,17.90
2017,05,25,11,31,17.90
2017,05,25,11,32,17.90
2017,05,25,11,33,17.90
2017,05,25,11,34,17.90
2017,05,25,11,35,17.80
2017,05,25,11,36,17.80
2017,05,25,11,37,17.80
2017,05,25,11,38,17.80
2017,05,25,11,39,17.80
2017,05,25,11,40,17.80
2017,05,25,11,41,17.80
2017,05,25,11,42,17.80
2017,05,25,11,43,17.80
2017,05,25,11,44,17.80
2017,05,25,11,45,17.80
2017,05,25,11,46,17.90
2017,05,25,11,47,17.90
2017,05,25,11,48,17.90
2017,05,25,11,49,17.90
2017,05,25,11,50,18.00
2017,05,25,11,51,18.00
2017,05,25,11,52,18.10
2017,05,25,11,53,18.20
2017,05,25,11,54,18.20
2017,05,25,11,55,18.20
2017,05,25,11,56,18.20
2017,05,25,11,57,18.30
2017,05,25,11,58,18.40
2017,05,25,11,59,18.40
2017,05,25,12,00,18.50
2017,05,25,12,01,18.50
2017,05,25,12,02,18.50
2017,05,25,12,03,18.50
2017,05,25,12,04,18.60
2017,05,25,12,05,18.60
2017,05,25,12,06,18.60
2017,05,25,12,07,18.50
2017,05,25,12,08,18.50
2017,05,25,12,09,18.50
2017,05,25,12,10,18.50
2017,05,25,12,11,18.60
2017,05,25,12,12,18.60
2017,05,25,12,13,18.60
2017,05,25,12,14,18.70
2017,05,25,12,15,18.70
2017,05,25,12,16,18.70
2017,05,25,12,17,18.80
2017,05,25,12,18,18.90
2017,05,25,12,19,19.00
2017,05,25,12,20,19.00
2017,05,25,12,21,19.00
2017,05,25,12,22,19.00
2017,05,25,12,23,18.90
2017,05,25,12,24,18.90
2017,05,25,12,25,18.90
2017,05,25,12,26,18.90
2017,05,25,12,27,18.90
2017,05,25,12,28,18.90
2017,05,25,12,29,19.00
2017,05,25,12,30,19.10
2017,05,25,12,31,19.10
2017,05,25,12,32,19.20
2017,05,25,12,33,19.20
2017,05,25,12,34,19.30
2017,05,25,12,35,19.30
2017,05,25,12,36,19.40
2017,05,25,12,37,19.50
2017,05,25,12,38,19.50
2017,05,25,12,39,19.50
2017,05,25,12,40,19.50
2017,05,25,12,41,19.50
2017,05,25,12,42,19.60
2017,05,25,12,43,19.60
2017,05,25,12,44,19.70
2017,05,25,12,45,19.80
2017,05,25,12,46,19.80
2017,05,25,12,47,19.90
2017,05,25,12,48,20.00
2017,05,25,12,49,20.00
2017,05,25,12,50,20.10
2017,05,25,12,51,20.10
2017,05,25,12,52,20.10
2017,05,25,12,53,20.10
2017,05,25,12,54,20.00
2017,05,25,12,55,20.10
2017,05,25,12,56,20.10
2017,05,25,12,57,20.10
2017,05,25,12,58,20.20
2017,05,25,12,59,20.20
2017,05,25,13,00,20.10
2017,05,25,13,01,20.20
2017,05,25,13,02,20.20
2017,05,25,13,03,20.30
2017,05,25,13,04,20.40
2017,05,25,13,05,20.50
2017,05,25,13,06,20.60
2017,05,25,13,07,20.60
2017,05,25,13,08,20.50
2017,05,25,13,09,20.40
2017,05,25,13,10,20.40
2017,05,25,13,11,20.40
2017,05,25,13,12,20.40
2017,05,25,13,13,20.50
2017,05,25,13,14,20.60
2017,05,25,13,15,20.60
2017,05,25,13,16,20.50
2017,05,25,13,17,20.60
2017,05,25,13,18,20.50
2017,05,25,13,19,20.50
2017,05,25,13,20,20.40
2017,05,25,13,21,20.40
2017,05,25,13,22,20.50
2017,05,25,13,23,20.60
2017,05,25,13,24,20.60
2017,05,25,13,25,20.60
2017,05,25,13,26,20.70
2017,05,25,13,27,20.70
2017,05,25,13,28,20.70
2017,05,25,13,29,20.70
2017,05,25,13,30,20.80
2017,05,25,13,31,20.80
2017,05,25,13,32,20.80
2017,05,25,13,33,20.80
2017,05,25,13,34,20.90
2017,05,25,13,35,20.90
2017,05,25,13,36,21.00
2017,05,25,13,37,21.10
2017,05,25,13,38,21.20
2017,05,25,13,39,21.20
2017,05,25,13,40,21.30
2017,05,25,13,41,21.30
2017,05,25,13,42,21.20
2017,05,25,13,43,21.20
2017,05,25,13,44,21.20
2017,05,25,13,45,21.20
2017,05,25,13,46,21.10
2017,05,25,13,47,21.10
2017,05,25,13,48,21.10
2017,05,25,13,49,21.10
2017,05,25,13,50,21.10
2017,05,25,13,51,21.10
2017,05,25,13,52,21.20
2017,05,25,13,53,21.20
2017,05,25,13,54,21.30
2017,05,25,13,55,21.30
2017,05,25,13,56,21.30
2017,05,25,13,57,21.30
2017,05,25,13,58,21.30
2017,05,25,13,59,21.40
2017,05,25,14,00,21.30
2017,05,25,14,01,21.30
2017,05,25,14,02,21.40
2017,05,25,14,03,21.40
2017,05,25,14,04,21.50
2017,05,25,14,05,21.60
2017,05,25,14,06,21.60
2017,05,25,14,07,21.50
2017,05,25,14,08,21.50
2017,05,25,14,09,21.60
2017,05,25,14,10,21.60
2017,05,25,14,11,21.60
2017,05,25,14,12,21.60
2017,05,25,14,13,21.60
2017,05,25,14,14,21.50
2017,05,25,14,15,21.40
2017,05,25,14,16,21.50
2017,05,25,14,17,21.50
2017,05,25,14,18,21.50
2017,05,25,14,19,21.60
2017,05,25,14,20,21.70
2017,05,25,14,21,21.70
2017,05,25,14,22,21.70
2017,05,25,14,23,21.70
2017,05,25,14,24,21.70
2017,05,25,14,25,21.70
2017,05,25,14,26,21.70
2017,05,25,14,27,21.70
2017,05,25,14,28,21.70
2017,05,25,14,29,21.80
2017,05,25,14,30,21.90
2017,05,25,14,31,21.90
2017,05,25,14,32,21.90
2017,05,25,14,33,22.00
2017,05,25,14,34,22.10
2017,05,25,14,35,22.20
2017,05,25,14,36,22.30
2017,05,25,14,37,22.30
2017,05,25,14,38,22.30
2017,05,25,14,39,22.30
2017,05,25,14,40,22.30
2017,05,25,14,41,22.30
2017,05,25,14,42,22.30
2017,05,25,14,43,22.20
2017,05,25,14,44,22.20
2017,05,25,14,45,22.30
2017,05,25,14,46,22.30
2017,05,25,14,47,22.30
2017,05,25,14,48,22.30
2017,05,25,14,49,22.40
2017,05,25,14,50,22.40
2017,05,25,14,51,22.40
2017,05,25,14,52,22.50
2017,05,25,14,53,22.60
2017,05,25,14,54,22.70
2017,05,25,14,55,22.70
2017,05,25,14,56,22.70
2017,05,25,14,57,22.70
2017,05,25,14,58,22.70
2017,05,25,14,59,22.70
2017,05,25,15,00,22.70
2017,05,25,15,01,22.60
2017,05,25,15,02,22.60
2017,05,25,15,03,22.70
2017,05,25,15,04,22.80
2017,05,25,15,05,22.90
2017,05,25,15,06,23.00
2017,05,25,15,07,23.10
2017,05,25,15,08,23.20
2017,05,25,15,09,23.30
2017,05,25,15,10,23.30
2017,05,25,15,11,23.30
2017,05,25,15,12,23.30
2017,05,25,15,13,23.30
2017,05,25,15,14,23.30
2017,05,25,15,15,23.30
2017,05,25,15,16,23.30
2017,05,25,15,17,23.30
2017,05,25,15,18,23.30
2017,05,25,15,19,23.30
2017,05,25,15,20,23.30
2017,05,25,15,21,23.30
2017,05,25,15,22,23.40
2017,05,25,15,23,23.50
2017,05,25,15,24,23.50
2017,05,25,15,25,23.60
2017,05,25,15,26,23.60
2017,05,25,15,27,23.70
2017,05,25,15,28,23.70
2017,05,25,15,29,23.70
2017,05,25,15,30,23.60
2017,05,25,15,31,23.60
2017,05,25,15,32,23.60
2017,05,25,15,33,23.50
2017,05,25,15,34,23.50
2017,05,25,15,35,23.60
2017,05,25,15,36,23.50
2017,05,25,15,37,23.40
2017,05,25,15,38,23.40
2017,05,25,15,39,23.30
2017,05,25,15,40,23.40
2017,05,25,15,41,23.40
2017,05,25,15,42,23.40
2017,05,25,15,43,23.40
2017,05,25,15,44,23.50
2017,05,25,15,45,23.50
2017,05,25,15,46,23.50
2017,05,25,15,47,23.50
2017,05,25,15,48,23.50
2017,05,25,15,49,23.50
2017,05,25,15,50,23.50
2017,05,25,15,51,23.50
2017,05,25,15,52,23.50
2017,05,25,15,53,23.50
2017,05,25,15,54,23.50
2017,05,25,15,55,23.60
2017,05,25,15,56,23.60
2017,05,25,15,57,23.60
2017,05,25,15,58,23.70
2017,05,25,15,59,23.70
2017,05,25,16,00,23.80
2017,05,25,16,01,23.80
2017,05,25,16,02,23.80
2017,05,25,16,03,23.80
2017,05,25,16,04,23.80
2017,05,25,16,05,23.90
2017,05,25,16,06,23.80
2017,05,25,16,07,23.80
2017,05,25,16,08,23.80
2017,05,25,16,09,23.80
2017,05,25,16,10,23.80
2017,05,25,16,11,23.80
2017,05,25,16,12,23.80
2017,05,25,16,13,23.90
2017,05,25,16,14,23.90
2017,05,25,16,15,23.90
2017,05,25,16,16,23.90
2017,05,25,16,17,23.90
2017,05,25,16,18,23.90
2017,05,25,16,19,23.90
2017,05,25,16,20,23.90
2017,05,25,16,21,23.90
2017,05,25,16,22,23.90
2017,05,25,16,23,24.00
2017,05,25,16,24,24.00
2017,05,25,16,25,23.90
2017,05,25,16,26,23.80
2017,05,25,16,27,23.80
2017,05,25,16,28,23.70
2017,05,25,16,29,23.70
2017,05,25,16,30,23.70
2017,05,25,16,31,23.70
2017,05,25,16,32,23.70
2017,05,25,16,33,23.70
2017,05,25,16,34,23.70
2017,05,25,16,35,23.80
2017,05,25,16,36,23.90
2017,05,25,16,37,23.90
2017,05,25,16,38,23.90
2017,05,25,16,39,24.00
2017,05,25,16,40,24.00
2017,05,25,16,41,24.10
2017,05,25,16,42,24.10
2017,05,25,16,43,24.00
2017,05,25,16,44,24.00
2017,05,25,16,45,23.90
2017,05,25,16,46,23.90
2017,05,25,16,47,23.90
2017,05,25,16,48,23.80
2017,05,25,16,49,23.80
2017,05,25,16,50,23.80
2017,05,25,16,51,23.80
2017,05,25,16,52,23.90
2017,05,25,16,53,24.00
2017,05,25,16,54,24.00
2017,05,25,16,55,24.10
2017,05,25,16,56,24.10
2017,05,25,16,57,24.10
2017,05,25,16,58,24.10
2017,05,25,16,59,24.10
2017,05,25,17,00,24.10
2017,05,25,17,01,24.10
2017,05,25,17,02,24.10
2017,05,25,17,03,24.10
2017,05,25,17,04,24.10
2017,05,25,17,05,24.10
2017,05,25,17,06,24.10
2017,05,25,17,07,24.10
2017,05,25,17,08,24.10
2017,05,25,17,09,24.10
2017,05,25,17,10,24.10
2017,05,25,17,11,24.10
2017,05,25,17,12,24.00
2017,05,25,17,13,24.00
2017,05,25,17,14,24.00
2017,05,25,17,15,24.00
2017,05,25,17,16,24.00
2017,05,25,17,17,24.10
2017,05,25,17,18,24.10
2017,05,25,17,19,24.10
2017,05,25,17,20,24.00
2017,05,25,17,21,24.10
2017,05,25,17,22,24.10
2017,05,25,17,23,24.20
2017,05,25,17,24,24.20
2017,05,25,17,25,24.20
2017,05,25,17,26,24.30
2017,05,25,17,27,24.30
2017,05,25,17,28,24.30
2017,05,25,17,29,24.30
2017,05,25,17,30,24.30
2017,05,25,17,31,24.40
2017,05,25,17,32,24.40
2017,05,25,17,33,24.40
2017,05,25,17,34,24.40
2017,05,25,17,35,24.40